Lincoln, NE

3:15 AM CDT on September 22, 2017 (GMT -0500)
Lincoln Municipal

Weather History for KLNK - January, 2010

Change the Weather History Date:

Thursday, January 7, 2010

  Actual Average Record
Temperature  
Mean Temperature 1 °F 24 °F  
Max Temperature 6 °F 35 °F 65 °F (2003)
Min Temperature -4 °F 14 °F -20 °F (1974)
Degree Days  
Heating Degree Days 64 41  
Month to date heating degree days 437 284  
Since 1 July heating degree days 3128 2729  
Cooling Degree Days 0 0  
Month to date cooling degree days 0 0  
Year to date cooling degree days 0 0  
Moisture  
Dew Point -5 °F    
Average Humidity 76    
Maximum Humidity 86    
Minimum Humidity 65    
Precipitation  
Precipitation T in 0.02 in 0.60 in (1937)
Month to date precipitation 0.49 0.14  
Year to date precipitation 0.49 0.14  
Snow  
Snow T in 0.20 in - ()
Month to date snowfall 6.9 1.1  
Since 1 July snowfall 32.4 9.8  
Snow Depth 18.00 in    
Sea Level Pressure  
Sea Level Pressure 30.43 in    
Wind  
Wind Speed 23 mph (NW)    
Max Wind Speed 38 mph    
Max Gust Speed 46 mph    
Visibility 5 miles    
Events Snow    
T = Trace of Precipitation, MM = Missing Value Source: NWS Daily Summary

Daily Weather History Graph

Daily Weather History Graph

Search for Another Location

Airport or City:

Trip Planner

Search our weather history database for the weather conditions in past years. The results will help you decide how hot, cold, wet, or windy it might be!

Date:

Astronomy

Jan. 07, 2010 Rise Set
Actual Time 7:51 AM CST 5:15 PM CST
Civil Twilight 7:20 AM CST 5:46 PM CST
Nautical Twilight 6:46 AM CST 6:20 PM CST
Astronomical Twilight 6:13 AM CST 6:53 PM CST
Moon 12:44 AM CST (1/7) 11:41 AM CST (1/7)
Length of Visible Light 10h 25m
Length of Day
9h 24m
Waning Gibbous, 47% of the Moon is Illuminated
Jan 7
Waning Gibbous
Jan 15
New
Jan 23
First Quarter
Jan 30
Full
Feb 5
Last Quarter

Hourly Weather History & Observations

Time (CST) Temp. Windchill Dew Point Humidity Pressure Visibility Wind Dir Wind Speed Gust Speed Precip Events Conditions
12:54 AM 5.0 °F -16.7 °F -2.0 °F 73% 30.35 in 4.0 mi NW 23.0 mph 32.2 mph N/A   Haze
1:30 AM 5.0 °F -17.5 °F -2.2 °F 72% 30.27 in 4.0 mi NW 25.3 mph 34.5 mph N/A Snow Blowing Snow
1:54 AM 5.0 °F -17.1 °F -0.9 °F 76% 30.34 in 4.0 mi NW 24.2 mph 29.9 mph 0.00 in   Overcast
2:43 AM 5.0 °F -16.7 °F -2.2 °F 72% 30.27 in 3.0 mi NW 23.0 mph 33.4 mph 0.00 in Snow Blowing Snow
2:54 AM 5.0 °F -17.1 °F -2.0 °F 73% 30.35 in 4.0 mi NW 24.2 mph 31.1 mph 0.00 in Snow Blowing Snow
3:03 AM 5.0 °F -16.2 °F -2.2 °F 72% 30.27 in 2.0 mi NW 21.9 mph 36.8 mph N/A Snow Blowing Snow
3:20 AM 5.0 °F -18.3 °F -2.2 °F 72% 30.27 in 1.8 mi NNW 27.6 mph 36.8 mph N/A Snow Blowing Snow
3:36 AM 5.0 °F -18.7 °F -2.2 °F 72% 30.28 in 2.5 mi NW 28.8 mph 36.8 mph N/A Snow Blowing Snow
3:44 AM 3.2 °F -21.1 °F -2.2 °F 78% 30.28 in 1.8 mi NW 28.8 mph 36.8 mph N/A Snow Blowing Snow
3:54 AM 3.9 °F -19.4 °F -2.0 °F 76% 30.35 in 1.8 mi NW 26.5 mph 41.4 mph N/A Snow Blowing Snow
4:15 AM 3.2 °F -20.7 °F -2.2 °F 78% 30.28 in 2.0 mi NNW 27.6 mph 40.3 mph N/A Snow Blowing Snow
4:26 AM 3.2 °F -21.8 °F -2.2 °F 78% 30.28 in 1.5 mi NNW 31.1 mph 38.0 mph 0.00 in   Overcast
4:39 AM 5.0 °F -18.3 °F -0.4 °F 78% 30.27 in 0.8 mi NNW 27.6 mph 41.4 mph 0.00 in Snow Light Snow
4:54 AM 3.9 °F -19.0 °F -0.9 °F 80% 30.36 in 1.0 mi NNW 25.3 mph 38.0 mph 0.00 in Snow Light Snow
5:04 AM 3.2 °F -22.9 °F -2.2 °F 78% 30.28 in 0.5 mi NNW 34.5 mph 46.0 mph 0.00 in Snow Snow
5:18 AM 3.2 °F -21.5 °F -2.2 °F 78% 30.30 in 1.2 mi NNW 29.9 mph 35.7 mph 0.00 in Snow Light Snow
5:27 AM 3.2 °F -19.9 °F -2.2 °F 78% 30.30 in 1.0 mi NNW 25.3 mph 42.6 mph 0.00 in Snow Light Snow
5:54 AM 3.0 °F -21.4 °F -2.9 °F 76% 30.38 in 1.0 mi NNW 28.8 mph 40.3 mph 0.00 in Snow Light Snow
6:24 AM 3.2 °F -21.1 °F -4.0 °F 72% 30.32 in 2.5 mi NNW 28.8 mph 35.7 mph 0.00 in Snow Blowing Snow
6:54 AM 1.9 °F -21.6 °F -5.1 °F 72% 30.41 in 2.5 mi NNW 25.3 mph 36.8 mph 0.00 in Snow Blowing Snow
7:54 AM 1.0 °F -24.4 °F -6.0 °F 72% 30.45 in 5.0 mi NNW 29.9 mph 39.1 mph N/A Snow Blowing Snow
8:54 AM -0.0 °F -24.7 °F -7.1 °F 72% 30.48 in 5.0 mi NNW 26.5 mph 38.0 mph N/A Snow Blowing Snow
9:20 AM -0.4 °F -26.0 °F -7.6 °F 72% 30.40 in 4.0 mi NNW 28.8 mph 36.8 mph N/A Snow Blowing Snow
9:54 AM -0.0 °F -24.7 °F -7.1 °F 72% 30.50 in 4.0 mi NNW 26.5 mph 36.8 mph N/A Snow Blowing Snow
9:56 AM -0.4 °F -26.7 °F -7.6 °F 72% 30.40 in 1.8 mi NNW 31.1 mph 36.8 mph N/A Snow Blowing Snow
10:03 AM -0.4 °F -23.3 °F -7.6 °F 72% 30.41 in 4.0 mi NNW 21.9 mph 36.8 mph N/A Snow Blowing Snow
10:54 AM 1.0 °F -22.4 °F -8.0 °F 66% 30.53 in 4.0 mi NNW 24.2 mph 33.4 mph N/A Snow Blowing Snow
11:54 AM 1.9 °F -22.0 °F -6.0 °F 69% 30.52 in 6.0 mi NNW 26.5 mph 35.7 mph N/A Snow Blowing Snow
12:54 PM 3.0 °F -20.6 °F -5.1 °F 69% 30.52 in 6.0 mi NNW 26.5 mph 33.4 mph N/A Snow Blowing Snow
1:11 PM 3.2 °F -19.0 °F -5.8 °F 66% 30.43 in 5.0 mi NW 23.0 mph 32.2 mph N/A   Haze
1:18 PM 3.2 °F -20.7 °F -5.8 °F 66% 30.42 in 5.0 mi NW 27.6 mph 39.1 mph N/A   Haze
1:54 PM 3.9 °F -18.1 °F -4.0 °F 70% 30.52 in 4.0 mi NW 23.0 mph 29.9 mph N/A   Haze
2:54 PM 3.9 °F -18.1 °F -4.0 °F 70% 30.53 in 5.0 mi NW 23.0 mph 32.2 mph N/A   Haze
3:54 PM 3.9 °F -15.0 °F -4.0 °F 70% 30.56 in 5.0 mi NW 16.1 mph 39.1 mph N/A   Haze
4:54 PM 1.9 °F -18.7 °F -6.0 °F 69% 30.58 in 6.0 mi NW 18.4 mph 29.9 mph N/A   Haze
5:54 PM 1.0 °F -19.9 °F -7.1 °F 69% 30.58 in 10.0 mi NW 18.4 mph 24.2 mph N/A   Clear
6:54 PM -0.0 °F -22.4 °F -9.0 °F 66% 30.60 in 9.0 mi NNW 20.7 mph 27.6 mph N/A   Clear
7:12 PM -0.4 °F -23.8 °F -9.4 °F 66% 30.51 in 8.0 mi NNW 23.0 mph 27.6 mph N/A   Mostly Cloudy
7:47 PM -0.4 °F -22.8 °F -9.4 °F 66% 30.53 in 9.0 mi NNW 20.7 mph 27.6 mph N/A   Clear
7:54 PM -0.9 °F -19.1 °F -9.9 °F 66% 30.63 in 10.0 mi NW 12.7 mph 27.6 mph N/A   Clear
8:54 PM -2.0 °F -23.3 °F -9.9 °F 69% 30.63 in 10.0 mi NW 17.3 mph 21.9 mph N/A   Clear
9:30 PM -2.2 °F -24.7 °F -11.2 °F 66% 30.54 in 7.0 mi NW 19.6 mph 28.8 mph N/A   Mostly Cloudy
9:54 PM -2.9 °F -25.6 °F -11.0 °F 68% 30.65 in 9.0 mi NW 19.6 mph 25.3 mph N/A   Overcast
10:11 PM -4.0 °F -25.2 °F -11.2 °F 71% 30.55 in 10.0 mi NNW 16.1 mph - N/A   Scattered Clouds
10:54 PM -4.0 °F -27.0 °F -11.9 °F 69% 30.66 in 6.0 mi NNW 19.6 mph 28.8 mph N/A   Haze
11:54 PM -4.0 °F -25.8 °F -11.9 °F 69% 30.66 in 10.0 mi NW 17.3 mph - N/A   Scattered Clouds